Regional Weather Roundup
Issued by NWS

Home | Current Version | Previous Version | Graphics & Text | Print | Product List | Glossary On
Versions: 1 2 3 4 5 6 7 8 9 10 11 12 13 14 15 16 17 18 19 20 21 22 23 24 25 26 27 28 29 30 31 32 33 34 35 36 37 38 39 40 41 42 43 44 45 46 47 48 49 50
000
ASUS43 KIND 240109
RWRIN

WEATHER ROUNDUP FOR INDIANA
NATIONAL WEATHER SERVICE INDIANAPOLIS IN
800 PM EST THU FEB 23 2017

NOTE: "FAIR" INDICATES FEW OR NO CLOUDS BELOW 12,000 FEET WITH NO
SIGNIFICANT WEATHER AND/OR OBSTRUCTIONS TO VISIBILITY.

* - STATION DOES NOT REPORT WEATHER SUCH AS PRECIPITATION OR FOG.

+ - STATION NOT QUALITY CONTROLLED BY THE NATIONAL WEATHER SERVICE.
    USE DATA WITH CAUTION...ESPECIALLY DEWPOINT AND RELATIVE
    HUMIDITY OBSERVATIONS.

INZ001>003-010>013-019-020-240200-
NORTHWEST INDIANA

CITY           SKY/WX    TMP DP  RH WIND       PRES   REMARKS
GARY /AIRPORT/ LGT RAIN  39  37  93 NE9       29.78F
KNOX *+        CLOUDY    39  28  65 N12       29.75F
LA PORTE +     LGT RAIN  38  37  97 NE13      29.73F
MICHIGAN CITY+ LGT RAIN  36  36 100 NE8       29.76F
MONTICELLO +   CLOUDY    51  44  78 NE7       29.72S
RENSSELAER +   CLOUDY    43  41  93 NE10      29.74R
VALPARAISO     LGT RAIN  39  38  96 NE12      29.74F FOG

$$

LMZ046-743>745-240200-
SOUTHERN LAKE MICHIGAN

STATION/POSITION TIME  TEMP    WIND        PRES    WAVE
                       AIR SEA DIR/SP/G            HT
                 (UTC) (F)     (DEG/KT/KT) (MB)    (FT)
BURNS HARBOR     0040   37      60/ 16/ 18 1007.8F
MICHIGAN CITY    0040   36      40/ 12/ 12   N/A

$$

INZ004-005-014>016-021>024-240200-
NORTH CENTRAL INDIANA

CITY           SKY/WX    TMP DP  RH WIND       PRES   REMARKS
ELKHART        DRIZZLE   46  41  81 N5        29.78R
GOSHEN         LGT RAIN  49  43  80 E6        29.76F
LOGANSPORT +   CLOUDY    52  45  76 NE7       29.71F
PERU/GRISSOM   PTCLDY    56  56 100 NE6       29.71F
ROCHESTER +    CLOUDY    52  45  76 NE6       29.73F
SOUTH BEND     LGT RAIN  41  39  93 N9        29.78R
WARSAW +       CLOUDY    50  45  81 NE8       29.74F

$$

INZ006>009-017-018-025>027-240200-
NORTHEAST INDIANA

CITY           SKY/WX    TMP DP  RH WIND       PRES   REMARKS
ANGOLA *+      MOCLDY    52  46  82 N6        29.75F
AUBURN +       CLOUDY    55  45  67 NE3       29.77R
FORT WAYNE     CLOUDY    56  51  84 E3        29.75R
HUNTINGTON +   CLOUDY    56  53  91 NE3       29.75S
KENDALLVILLE + LGT RAIN  51  47  84 N5        29.77S

$$

INZ028-029-035-036-043>045-051>053-240200-
WEST CENTRAL INDIANA

CITY           SKY/WX    TMP DP  RH WIND       PRES   REMARKS
LAFAYETTE      CLOUDY    55  48  77 NE9       29.71S
TERRE HAUTE    CLOUDY    62  54  74 SE7       29.68S

$$

INZ030>032-037>040-046>048-054>057-064-065-240200-
CENTRAL INDIANA

CITY           SKY/WX    TMP DP  RH WIND       PRES   REMARKS
CP ATTERBURY + PTCLDY    61  54  77 SE6       29.73S
COLUMBUS       MOCLDY    59  57  94 SE9       29.73F
FRANKFORT +    CLOUDY    60  56  85 E10       29.73S
GREENWOOD *+   PTCLDY    63  56  78 SE6       29.73S
INDIANAPOLIS   MOCLDY    62  53  72 SE7       29.71S
-EAGLE CREEK   PTCLDY    65  53  65 S7        29.70S
KOKOMO +       CLOUDY    57  53  86 E8        29.73F
MARION +       MOCLDY    58  53  86 E7        29.74S
MT COMFORT *+  MOCLDY    61  54  77 S7        29.73S
SHELBYVILLE    MOCLDY    62  53  72 SE9       29.72F
ZIONSVILLE +   MOCLDY    58  54  88 E6        29.72S

$$

INZ033-034-041-042-049-050-058-059-240200-
EAST CENTRAL INDIANA

CITY           SKY/WX    TMP DP  RH WIND       PRES   REMARKS
MUNCIE         CLOUDY    59  53  80 E7        29.74S

$$

INZ060-061-067>069-081>083-085>088-240200-
SOUTHWEST INDIANA

CITY           SKY/WX    TMP DP  RH WIND       PRES   REMARKS
EVANSVILLE     PTCLDY    65  52  62 SE3       29.69S
HUNTINGBURG *+ MOCLDY    63  55  75 SE7       29.71S
WASHINGTON +   MOCLDY    59  53  81 S5        29.69F

$$

INZ062-063-066-070>080-084-089>092-240200-
SOUTH CENTRAL AND SOUTHEAST INDIANA

CITY           SKY/WX    TMP DP  RH WIND       PRES   REMARKS
BEDFORD +      CLOUDY   N/A N/A N/A SE6       29.71
BLOOMINGTON    PTCLDY    62  53  72 SE5       29.71S
MADISON *+     PTCLDY    63  54  72 SE5       29.77F
NORTH VERNON + MOCLDY    64  55  72 SE6       29.75
SEYMOUR +      MOCLDY    63  55  77 SE7       29.73F

$$




USA.gov is the U.S. government's official web portal to all federal, state and local government web resources and services.